GW1938 Weather Reports


time (UTC)temp
F
wind
direction
speed
knots
gust
knots
rain 1hr
in
rain 24hr
in
rain mn
in
humidity
%
barometer
mb
20260504151011 66 267 5.2 8.7 0.00 0.09 0.00 100 1013.8
20260504150508 66 266 5.2 8.7 0.00 0.09 0.00 100 1013.8
20260504140949 66 241 4.3 6.1 0.01 0.09 0.00 100 1013.6
20260504140447 66 255 6.1 8.7 0.01 0.09 0.00 100 1013.9
20260504130413 67 319 2.6 3.5 0.00 0.09 0.09 100 1014.0
20260504110323 67 205 3.5 4.3 0.03 0.08 0.08 100 1015.2
20260504100300 69 263 3.5 5.2 0.04 0.05 0.05 97 1015.2
20260504081213 70 9 6.1 8.7 0.00 0.00 0.00 89 1014.1
20260504080712 71 13 6.1 8.7 0.00 0.00 0.00 89 1014.0
20260504080211 71 15 6.1 8.7 0.00 0.00 0.00 89 1014.0
20260504070146 71 50 8.7 12.2 0.00 0.00 0.00 89 1013.4
20260504060126 72 51 10.4 14.8 0.00 0.00 0.00 83 1013.2
20260504050605 74 63 12.2 16.5 0.00 0.00 0.00 75 1013.1
20260504050103 74 66 11.3 14.8 0.00 0.00 0.00 75 1013.1
20260504045602 74 65 11.3 15.6 0.00 0.00 0.00 74 1013.1
20260504045101 74 71 11.3 14.8 0.00 0.00 0.00 73 1013.2
20260504044558 74 72 12.2 13.9 0.00 0.00 0.00 74 1013.2
20260504043421 74 73 11.3 13.9 0.00 0.00 0.00 72 1013.2
20260504042920 74 81 9.6 13.9 0.00 0.00 0.00 71 1013.2
20260504042419 74 77 9.6 13.0 0.00 0.00 0.00 72 1013.3
20260504041414 74 59 9.6 13.0 0.00 0.00 0.00 72 1013.5
20260504040126 75 64 11.3 13.9 0.00 0.00 0.00 70 1013.5
20260504035624 76 64 11.3 14.8 0.00 0.00 0.00 67 1013.5
20260504035121 78 60 10.4 13.0 0.00 0.00 0.00 63 1013.5
20260504034620 79 56 9.6 12.2 0.00 0.00 0.00 64 1013.5
20260504034117 78 54 9.6 12.2 0.00 0.00 0.00 63 1013.6
20260504033615 78 53 8.7 12.2 0.00 0.00 0.00 64 1013.6
20260504033114 79 53 9.6 13.0 0.00 0.00 0.00 63 1013.6
20260504032613 80 42 7.0 12.2 0.00 0.00 0.00 60 1013.8
20260504032112 80 32 5.2 7.0 0.00 0.00 0.00 53 1013.8
20260504031610 80 34 5.2 7.0 0.00 0.00 0.00 55 1013.8
20260504025601 79 47 6.1 10.4 0.00 0.00 0.00 61 1014.0
20260504025100 78 43 6.1 8.7 0.00 0.00 0.00 63 1014.1
20260504024056 77 23 5.2 7.0 0.00 0.00 0.00 58 1014.2
20260504023554 77 50 7.8 10.4 0.00 0.00 0.00 66 1014.3
20260504022549 76 54 8.7 11.3 0.00 0.00 0.00 67 1014.5
20260504022047 77 59 9.6 12.2 0.00 0.00 0.00 66 1014.6
20260504021546 77 53 7.8 11.3 0.00 0.00 0.00 66 1014.7
20260504021044 77 52 7.8 10.4 0.00 0.00 0.00 65 1014.8
20260504020542 77 56 8.7 10.4 0.00 0.00 0.00 67 1014.9
20260504020041 76 47 7.0 9.6 0.00 0.00 0.00 67 1015.1
20260504015540 76 46 7.0 10.4 0.00 0.00 0.00 66 1015.1
20260504015038 75 43 6.1 8.7 0.00 0.00 0.00 69 1015.2
20260504014536 75 51 7.8 12.2 0.00 0.00 0.00 68 1015.3
20260504014033 76 51 7.8 11.3 0.00 0.00 0.00 65 1015.3
20260504013532 76 55 8.7 11.3 0.00 0.00 0.00 68 1015.4
20260504012527 76 62 10.4 13.0 0.00 0.00 0.00 65 1015.5
20260504012026 76 54 9.6 13.0 0.00 0.00 0.00 65 1015.5
20260504011022 75 42 6.1 10.4 0.00 0.00 0.00 66 1015.6
20260504010519 76 49 7.0 10.4 0.00 0.00 0.00 65 1015.7
20260504010017 77 41 5.2 7.8 0.00 0.00 0.00 63 1015.6
20260504005515 77 30 5.2 9.6 0.00 0.00 0.00 60 1015.7
20260504005014 77 37 5.2 7.8 0.00 0.00 0.00 60 1015.8
20260504004513 77 36 4.3 7.0 0.00 0.00 0.00 61 1015.8
20260504003004 75 26 6.1 9.6 0.00 0.00 0.00 65 1015.9
20260504002502 75 21 5.2 9.6 0.00 0.00 0.00 63 1016.0
20260504002000 75 35 4.3 7.0 0.00 0.00 0.00 66 1016.0
20260504001459 74 23 5.2 9.6 0.00 0.00 0.00 65 1016.1
20260504000955 74 33 5.2 10.4 0.00 0.00 0.00 66 1016.2
20260504000453 74 27 5.2 7.0 0.00 0.00 0.00 67 1016.1
20260503235952 73 26 5.2 7.8 0.00 0.00 0.00 67 1016.1
20260503235449 73 26 5.2 8.7 0.00 0.00 0.00 68 1016.1
20260503234946 73 26 4.3 7.0 0.00 0.00 0.00 69 1016.2
20260503234444 72 21 6.1 7.8 0.00 0.00 0.00 73 1016.2
20260503233943 72 32 6.1 7.8 0.00 0.00 0.00 75 1016.2
20260503232937 70 27 6.1 9.6 0.00 0.00 0.00 78 1016.2
20260503232436 70 24 7.0 9.6 0.00 0.00 0.00 79 1016.2
20260503231431 70 23 7.8 11.3 0.00 0.00 0.00 80 1016.1
20260503230929 70 25 8.7 11.3 0.00 0.00 0.00 80 1016.1
20260503230428 70 26 8.7 12.2 0.00 0.00 0.00 79 1016.1
20260503225927 70 28 7.8 13.0 0.00 0.00 0.00 80 1016.1
20260503225425 70 29 7.8 11.3 0.00 0.00 0.00 82 1016.0
20260503224418 70 31 7.8 13.0 0.00 0.00 0.00 82 1016.0
20260503222407 69 31 8.7 13.9 0.00 0.00 0.00 84 1016.0
20260503221906 69 29 8.7 11.3 0.00 0.00 0.00 85 1016.0
20260503221404 68 30 7.8 11.3 0.00 0.00 0.00 86 1016.1
20260503220903 68 31 8.7 15.6 0.00 0.00 0.00 86 1016.1
20260503220402 68 31 8.7 13.9 0.00 0.00 0.00 86 1016.0
20260503215357 68 32 8.7 12.2 0.00 0.00 0.00 86 1015.9
20260503214855 68 31 8.7 14.8 0.00 0.00 0.00 86 1015.9
20260503214353 68 32 8.7 14.8 0.00 0.00 0.00 86 1015.8
20260503212845 68 32 8.7 11.3 0.00 0.00 0.00 86 1015.8
20260503212344 67 33 9.6 16.5 0.00 0.00 0.00 86 1015.8
20260503211842 67 33 8.7 11.3 0.00 0.00 0.00 85 1015.8
20260503211340 67 29 10.4 14.8 0.00 0.00 0.00 84 1015.7
20260503210838 67 27 11.3 14.8 0.00 0.00 0.00 84 1015.6
20260503210336 67 31 10.4 13.0 0.00 0.00 0.00 84 1015.6
20260503205835 67 32 8.7 11.3 0.00 0.00 0.00 86 1015.5
20260503204830 67 36 7.8 12.2 0.00 0.00 0.00 86 1015.5
20260503204329 67 32 7.8 9.6 0.00 0.00 0.00 86 1015.5
20260503203323 66 37 7.0 9.6 0.00 0.00 0.00 85 1015.4
20260503202823 66 34 6.1 9.6 0.00 0.00 0.00 85 1015.4
20260503202320 66 35 6.1 9.6 0.00 0.00 0.00 85 1015.3
20260503201819 66 36 6.1 7.8 0.00 0.00 0.00 86 1015.3
20260503201317 66 34 6.1 7.8 0.00 0.00 0.00 87 1015.2
20260503200816 66 30 6.1 8.7 0.00 0.00 0.00 86 1015.2
20260503200314 66 24 6.1 8.7 0.00 0.00 0.00 87 1015.1
20260503195813 65 25 6.1 7.8 0.00 0.00 0.00 87 1015.2
20260503195312 65 26 5.2 8.7 0.00 0.00 0.00 88 1015.2
20260503194306 65 15 6.1 9.6 0.00 0.00 0.00 89 1015.0
20260503193804 65 13 6.1 7.8 0.00 0.00 0.00 88 1014.9
20260503193302 65 20 5.2 8.7 0.00 0.00 0.00 87 1014.8
20260503192800 66 25 5.2 7.0 0.00 0.00 0.00 87 1014.8
20260503192259 66 23 6.1 7.8 0.00 0.00 0.00 87 1014.8
20260503191758 66 28 6.1 7.8 0.00 0.00 0.00 87 1014.7
20260503191257 66 30 5.2 7.0 0.00 0.00 0.00 88 1014.7
20260503190755 66 35 5.2 7.8 0.00 0.00 0.00 88 1014.7
20260503190254 66 38 4.3 6.1 0.00 0.00 0.00 87 1014.7
20260503185753 66 33 4.3 6.1 0.00 0.00 0.00 87 1014.6
20260503184748 66 23 4.3 5.2 0.00 0.00 0.00 86 1014.6
20260503184245 66 26 4.3 7.0 0.00 0.00 0.00 86 1014.6
20260503183744 66 22 4.3 7.0 0.00 0.00 0.00 86 1014.6
20260503182235 66 25 4.3 7.0 0.00 0.00 0.00 86 1014.6
20260503181733 66 27 5.2 8.7 0.00 0.00 0.00 87 1014.6
20260503181232 67 34 4.3 7.8 0.00 0.00 0.00 87 1014.6
20260503180227 67 29 5.2 9.6 0.00 0.00 0.00 84 1014.6
20260503174718 67 29 5.2 8.7 0.00 0.00 0.00 84 1014.7
20260503174214 67 34 4.3 7.0 0.00 0.00 0.00 84 1014.7
20260503173713 67 26 4.3 8.7 0.00 0.00 0.00 83 1014.8
20260503173211 67 26 5.2 10.4 0.00 0.00 0.00 83 1014.7
20260503172710 67 22 6.1 9.6 0.00 0.00 0.00 83 1014.8
20260503172209 67 16 6.1 8.7 0.00 0.00 0.00 83 1014.7
20260503171204 67 34 5.2 8.7 0.00 0.00 0.00 85 1014.8
20260503170703 66 37 4.3 7.0 0.00 0.00 0.00 85 1014.9
20260503170201 66 35 5.2 7.8 0.00 0.00 0.00 85 1014.9
20260503160126 66 21 4.3 8.7 0.00 0.00 0.00 86 1015.4